Location: Amberg
(48.0613°N, 10.6820°E)
Time: 23:34:41
(UTC+00:00)

Cosmos 540 Rocket - Pass Details

Date: 18 November 2025
Orbit: 735 x 748 km, 74.1° (Epoch: 04 December)

Event Time Altitude Azimuth Distance (km) Brightness Sun altitude
Rises 16:37:32 0° 338° (NNW) 3,201 6.8 -10.3°
Reaches altitude 10° 16:39:55 10° 340° (NNW) 2,271 6.0 -10.7°
Maximum altitude 16:45:04 77° 66° (ENE) 767 3.4 -11.5°
Drops below altitude 10° 16:50:10 10° 153° (SSE) 2,247 5.8 -12.3°
Sets 16:52:30 0° 155° (SSE) 3,164 6.6 -12.7°
